Tracking 30743 objects as of 21-Jun-2025
HD Live streaming from Space Station
objects crossing your sky now

STARLINK-32413

Track STARLINK-32413 now!
10-day predictions
STARLINK-32413 is classified as:


NORAD ID: 61590
Int'l Code: 2024-187S
Perigee: 481.7 km
Apogee: 483.1 km
Inclination: 53.2 °
Period: 94.1 minutes
Semi major axis: 6853 km
RCS: Unknown
Launch date: October 18, 2024
Source: United States (US)
Launch site: AIR FORCE EASTERN TEST RANGE (AFETR)
Your satellite tracking list
Your tracking list is empty




NASA's NSSDC Master Catalog

Two Line Element Set (TLE):
1 61590U 24187S   25170.37000693  .00000643  00000-0  33828-4 0  9997
2 61590  53.1593 208.4431 0001021  72.3608 287.7504 15.30195425 38763
Source of the keplerian elements: AFSPC